Appleton, MN

6:28 AM CST on January 20, 2017 (GMT -0600)
Appleton Municipal

Weather History for KAQP - September, 2012

Change the Weather History Date:

Sunday, September 2, 2012

  Actual Average Record
Temperature  
Mean Temperature 76 °F -  
Max Temperature 91 °F 77 °F 91 °F (2012)
Min Temperature 62 °F 53 °F 35 °F (2002)
Cooling Degree Days 12    
Growing Degree Days 26 (Base 50)    
Moisture  
Dew Point 58 °F    
Average Humidity 56    
Maximum Humidity 83    
Minimum Humidity 31    
Precipitation  
Precipitation 0.00 in - - ()
Sea Level Pressure  
Sea Level Pressure 29.85 in    
Wind  
Wind Speed 10 mph (SSE)    
Max Wind Speed 22 mph    
Max Gust Speed 29 mph    
Visibility 10 miles    
Events      
Averages and records for this station are not official NWS values.
T = Trace of Precipitation, MM = Missing Value Source: NWS Daily Summary

Daily Weather History Graph

Daily Weather History Graph

Search for Another Location

Airport or City:

Trip Planner

Search our weather history database for the weather conditions in past years. The results will help you decide how hot, cold, wet, or windy it might be!

Date:

Astronomy

Sep. 02, 2012 Rise Set
Actual Time 6:47 AM CDT 7:58 PM CDT
Civil Twilight 6:17 AM CDT 8:28 PM CDT
Nautical Twilight 5:40 AM CDT 9:05 PM CDT
Astronomical Twilight 5:02 AM CDT 9:43 PM CDT
Moon 8:35 PM CDT (9/2) 9:06 AM CDT (9/2)
Length of Visible Light 14h 11m
Length of Day
13h 10m
Waning Gibbous, 95% of the Moon is Illuminated
Sep 2
Waning Gibbous
Sep 8
Last Quarter
Sep 15
New
Sep 22
First Quarter
Sep 29
Full

Hourly Weather History & Observations

Time (CDT) Temp. Heat Index Dew Point Humidity Pressure Visibility Wind Dir Wind Speed Gust Speed Precip Events Conditions
12:13 AM 66.2 °F - 53.6 °F 64% 29.95 in 10.0 mi SE 11.5 mph - N/A   Clear
12:17 AM 66.2 °F - 53.6 °F 64% 29.95 in 10.0 mi SE 10.4 mph - N/A   Clear
12:33 AM 66.2 °F - 51.8 °F 60% 29.95 in 10.0 mi SE 11.5 mph - N/A   Clear
12:37 AM 66.2 °F - 51.8 °F 60% 29.95 in 10.0 mi SE 10.4 mph - N/A   Clear
12:54 AM 66.2 °F - 51.8 °F 60% 29.95 in 10.0 mi SE 9.2 mph - N/A   Clear
12:58 AM 66.2 °F - 51.8 °F 60% 29.95 in 10.0 mi SE 10.4 mph - N/A   Clear
1:13 AM 66.2 °F - 51.8 °F 60% 29.95 in 10.0 mi SE 10.4 mph - N/A   Clear
1:17 AM 66.2 °F - 51.8 °F 60% 29.95 in 10.0 mi SE 10.4 mph - N/A   Clear
1:33 AM 64.4 °F - 51.8 °F 64% 29.94 in 10.0 mi SE 9.2 mph - N/A   Clear
1:37 AM 64.4 °F - 51.8 °F 64% 29.94 in 10.0 mi SE 9.2 mph - N/A   Clear
1:54 AM 64.4 °F - 51.8 °F 64% 29.94 in 10.0 mi SE 8.1 mph - N/A   Clear
1:57 AM 64.4 °F - 51.8 °F 64% 29.94 in 10.0 mi SE 9.2 mph - N/A   Clear
2:13 AM 64.4 °F - 51.8 °F 64% 29.93 in 10.0 mi SE 9.2 mph - N/A   Clear
2:17 AM 64.4 °F - 51.8 °F 64% 29.93 in 10.0 mi SE 9.2 mph - N/A   Clear
2:33 AM 64.4 °F - 51.8 °F 64% 29.93 in 10.0 mi SE 9.2 mph - N/A   Clear
2:37 AM 64.4 °F - 51.8 °F 64% 29.93 in 10.0 mi SE 10.4 mph - N/A   Clear
2:53 AM 64.4 °F - 51.8 °F 64% 29.93 in 10.0 mi SE 9.2 mph - N/A   Clear
2:57 AM 66.2 °F - 51.8 °F 60% 29.93 in 10.0 mi SSE 9.2 mph - N/A   Clear
3:13 AM 66.2 °F - 53.6 °F 64% 29.92 in 10.0 mi SSE 11.5 mph - N/A   Clear
3:17 AM 66.2 °F - 53.6 °F 64% 29.92 in 10.0 mi SSE 11.5 mph - N/A   Clear
3:33 AM 66.2 °F - 53.6 °F 64% 29.92 in 10.0 mi South 9.2 mph - N/A   Clear
3:37 AM 66.2 °F - 53.6 °F 64% 29.92 in 10.0 mi South 8.1 mph - N/A   Clear
3:53 AM 66.2 °F - 53.6 °F 64% 29.93 in 10.0 mi SSE 11.5 mph - N/A   Clear
3:58 AM 66.2 °F - 53.6 °F 64% 29.93 in 10.0 mi SSE 9.2 mph - N/A   Clear
4:13 AM 64.4 °F - 53.6 °F 68% 29.92 in 10.0 mi SSE 9.2 mph - N/A   Clear
4:17 AM 64.4 °F - 53.6 °F 68% 29.93 in 10.0 mi SSE 9.2 mph - N/A   Clear
4:34 AM 64.4 °F - 55.4 °F 73% 29.93 in 10.0 mi SSE 9.2 mph - N/A   Clear
4:37 AM 64.4 °F - 55.4 °F 73% 29.93 in 10.0 mi SSE 9.2 mph - N/A   Clear
4:53 AM 64.4 °F - 55.4 °F 73% 29.93 in 10.0 mi SSE 8.1 mph - N/A   Clear
4:58 AM 64.4 °F - 55.4 °F 73% 29.93 in 10.0 mi SSE 9.2 mph - N/A   Clear
5:13 AM 64.4 °F - 55.4 °F 73% 29.92 in 10.0 mi SSE 10.4 mph - N/A   Clear
5:17 AM 64.4 °F - 55.4 °F 73% 29.92 in 10.0 mi SSE 9.2 mph - N/A   Clear
5:33 AM 64.4 °F - 55.4 °F 73% 29.91 in 10.0 mi SE 10.4 mph - N/A   Clear
5:37 AM 64.4 °F - 55.4 °F 73% 29.92 in 10.0 mi SSE 9.2 mph - N/A   Clear
5:53 AM 64.4 °F - 55.4 °F 73% 29.92 in 10.0 mi SSE 6.9 mph - N/A   Clear
5:57 AM 64.4 °F - 55.4 °F 73% 29.92 in 10.0 mi SE 6.9 mph - N/A   Clear
6:13 AM 64.4 °F - 55.4 °F 73% 29.91 in 10.0 mi SE 10.4 mph - N/A   Clear
6:17 AM 64.4 °F - 55.4 °F 73% 29.91 in 10.0 mi SE 10.4 mph - N/A   Clear
6:33 AM 64.4 °F - 55.4 °F 73% 29.91 in 10.0 mi SE 10.4 mph - N/A   Clear
6:37 AM 62.6 °F - 55.4 °F 77% 29.90 in 10.0 mi SE 12.7 mph - N/A   Clear
6:53 AM 62.6 °F - 53.6 °F 72% 29.91 in 10.0 mi SSE 9.2 mph - N/A   Clear
6:57 AM 62.6 °F - 55.4 °F 77% 29.92 in 10.0 mi SSE 8.1 mph - N/A   Clear
7:14 AM 62.6 °F - 55.4 °F 77% 29.92 in 10.0 mi SE 9.2 mph - N/A   Clear
7:18 AM 62.6 °F - 55.4 °F 77% 29.91 in 10.0 mi SE 10.4 mph - N/A   Clear
7:33 AM 64.4 °F - 55.4 °F 73% 29.91 in 10.0 mi SSE 10.4 mph - N/A   Clear
7:37 AM 64.4 °F - 55.4 °F 73% 29.91 in 10.0 mi SSE 10.4 mph - N/A   Clear
7:57 AM 64.4 °F - 55.4 °F 73% 29.90 in 10.0 mi SSE 10.4 mph - N/A   Clear
8:13 AM 66.2 °F - 55.4 °F 68% 29.89 in 10.0 mi SSE 11.5 mph 18.4 mph N/A   Clear
8:17 AM 66.2 °F - 55.4 °F 68% 29.89 in 10.0 mi SSE 15.0 mph 20.7 mph N/A   Clear
8:33 AM 66.2 °F - 55.4 °F 68% 29.88 in 10.0 mi SE 15.0 mph 20.7 mph N/A   Clear
8:37 AM 68.0 °F - 55.4 °F 64% 29.88 in 10.0 mi SSE 12.7 mph 20.7 mph N/A   Clear
8:54 AM 69.8 °F - 55.4 °F 60% 29.88 in 10.0 mi SSE 11.5 mph 18.4 mph N/A   Clear
8:57 AM 69.8 °F - 55.4 °F 60% 29.88 in 10.0 mi SSE 11.5 mph 17.3 mph N/A   Clear
9:13 AM 71.6 °F - 55.4 °F 57% 29.88 in 10.0 mi SSE 13.8 mph 18.4 mph N/A   Clear
9:17 AM 71.6 °F - 55.4 °F 57% 29.88 in 10.0 mi SSE 12.7 mph 18.4 mph N/A   Clear
9:34 AM 71.6 °F - 55.4 °F 57% 29.88 in 10.0 mi South 11.5 mph - N/A   Clear
9:38 AM 73.4 °F - 55.4 °F 53% 29.88 in 10.0 mi South 15.0 mph 18.4 mph N/A   Clear
9:53 AM 73.4 °F - 55.4 °F 53% 29.86 in 10.0 mi SSE 13.8 mph 20.7 mph N/A   Clear
9:57 AM 73.4 °F - 55.4 °F 53% 29.86 in 10.0 mi SSE 12.7 mph 20.7 mph N/A   Clear
10:14 AM 75.2 °F - 55.4 °F 50% 29.86 in 10.0 mi SSE 12.7 mph 17.3 mph N/A   Clear
10:17 AM 75.2 °F - 57.2 °F 53% 29.86 in 10.0 mi South 13.8 mph 17.3 mph N/A   Clear
10:33 AM 77.0 °F - 57.2 °F 50% 29.86 in 10.0 mi South 13.8 mph 19.6 mph N/A   Clear
10:37 AM 77.0 °F - 57.2 °F 50% 29.86 in 10.0 mi SSE 15.0 mph 19.6 mph N/A   Clear
10:54 AM 78.8 °F - 57.2 °F 47% 29.85 in 10.0 mi SSE 15.0 mph 23.0 mph N/A   Clear
10:57 AM 78.8 °F - 57.2 °F 47% 29.85 in 10.0 mi SSE 13.8 mph 23.0 mph N/A   Clear
11:13 AM 80.6 °F 80.8 °F 57.2 °F 45% 29.84 in 10.0 mi SSE 16.1 mph 20.7 mph N/A   Clear
11:17 AM 80.6 °F 80.8 °F 57.2 °F 45% 29.84 in 10.0 mi SSE 15.0 mph 20.7 mph N/A   Clear
11:34 AM 82.4 °F 82.5 °F 59.0 °F 45% 29.83 in 7.0 mi South 16.1 mph 21.9 mph N/A   Clear
11:37 AM 82.4 °F 82.5 °F 59.0 °F 45% 29.83 in 10.0 mi South 17.3 mph 23.0 mph N/A   Clear
11:54 AM 84.2 °F 83.8 °F 59.0 °F 42% 29.83 in 10.0 mi South 16.1 mph 25.3 mph N/A   Clear
11:57 AM 86.0 °F 86.1 °F 60.8 °F 43% 29.83 in 10.0 mi South 12.7 mph 25.3 mph N/A   Clear
12:14 PM 86.0 °F 86.1 °F 60.8 °F 43% 29.81 in 10.0 mi South 21.9 mph 28.8 mph N/A   Clear
12:17 PM 86.0 °F 85.4 °F 59.0 °F 40% 29.81 in 10.0 mi South 17.3 mph 28.8 mph N/A   Clear
12:33 PM 87.8 °F 87.6 °F 60.8 °F 40% 29.81 in 10.0 mi South 12.7 mph 23.0 mph N/A   Clear
12:38 PM 87.8 °F 87.6 °F 60.8 °F 40% 29.81 in 10.0 mi South 17.3 mph 25.3 mph N/A   Clear
12:53 PM 87.8 °F 87.6 °F 60.8 °F 40% 29.81 in 7.0 mi South 15.0 mph 26.5 mph N/A   Clear
12:58 PM 87.8 °F 87.6 °F 60.8 °F 40% 29.81 in 7.0 mi South 15.0 mph 26.5 mph N/A   Clear
1:14 PM 89.6 °F 89.5 °F 60.8 °F 38% 29.81 in 10.0 mi South 15.0 mph 20.7 mph N/A   Clear
1:34 PM 89.6 °F 89.5 °F 60.8 °F 38% 29.80 in 10.0 mi South 15.0 mph 20.7 mph N/A   Clear
1:37 PM 89.6 °F 89.5 °F 60.8 °F 38% 29.80 in 10.0 mi South 13.8 mph 20.7 mph N/A   Clear
1:53 PM 91.4 °F 91.4 °F 60.8 °F 36% 29.79 in 7.0 mi South 15.0 mph 20.7 mph N/A   Clear
1:57 PM 91.4 °F 91.4 °F 60.8 °F 36% 29.79 in 5.0 mi South 13.8 mph 20.7 mph N/A   Haze
2:14 PM 91.4 °F 89.9 °F 57.2 °F 31% 29.79 in 7.0 mi SSW 15.0 mph 19.6 mph N/A   Clear
2:17 PM 91.4 °F 89.9 °F 57.2 °F 31% 29.78 in 10.0 mi SSW 12.7 mph 19.6 mph N/A   Clear
2:33 PM 91.4 °F 90.7 °F 59.0 °F 34% 29.78 in 10.0 mi South 15.0 mph 20.7 mph N/A   Clear
2:37 PM 91.4 °F 90.7 °F 59.0 °F 34% 29.77 in 10.0 mi SSW 13.8 mph 20.7 mph N/A   Clear
2:54 PM 89.6 °F 88.9 °F 59.0 °F 36% 29.78 in 10.0 mi SSW 12.7 mph 18.4 mph N/A   Clear
2:57 PM 89.6 °F 88.9 °F 59.0 °F 36% 29.78 in 10.0 mi SSW 11.5 mph 18.4 mph N/A   Clear
3:13 PM 89.6 °F 88.9 °F 59.0 °F 36% 29.78 in 5.0 mi South 12.7 mph 17.3 mph N/A   Haze
3:17 PM 89.6 °F 89.5 °F 60.8 °F 38% 29.78 in 5.0 mi South 11.5 mph - N/A   Haze
3:33 PM 89.6 °F 89.5 °F 60.8 °F 38% 29.79 in 10.0 mi SSW 10.4 mph - N/A   Clear
3:37 PM 89.6 °F 89.5 °F 60.8 °F 38% 29.79 in 10.0 mi SSW 12.7 mph - N/A   Clear
3:53 PM 89.6 °F 89.5 °F 60.8 °F 38% 29.79 in 10.0 mi SW 9.2 mph 17.3 mph N/A   Clear
3:57 PM 89.6 °F 89.5 °F 60.8 °F 38% 29.79 in 10.0 mi SW 12.7 mph 18.4 mph N/A   Clear
4:13 PM 91.4 °F 91.4 °F 60.8 °F 36% 29.78 in 7.0 mi SSW 12.7 mph - N/A   Clear
4:18 PM 91.4 °F 91.4 °F 60.8 °F 36% 29.78 in 7.0 mi SSW 11.5 mph - N/A   Clear
4:33 PM 91.4 °F 91.4 °F 60.8 °F 36% 29.78 in 7.0 mi South 12.7 mph 17.3 mph N/A   Clear
4:37 PM 91.4 °F 91.4 °F 60.8 °F 36% 29.78 in 7.0 mi SSW 10.4 mph 17.3 mph N/A   Clear
4:54 PM 91.4 °F 91.4 °F 60.8 °F 36% 29.79 in 10.0 mi SSW 11.5 mph 18.4 mph N/A   Clear
4:57 PM 91.4 °F 91.4 °F 60.8 °F 36% 29.79 in 10.0 mi South 12.7 mph 17.3 mph N/A   Clear
5:13 PM 89.6 °F 89.5 °F 60.8 °F 38% 29.79 in 10.0 mi South 8.1 mph - N/A   Clear
5:17 PM 91.4 °F 91.4 °F 60.8 °F 36% 29.79 in 10.0 mi SSW 12.7 mph 17.3 mph N/A   Scattered Clouds
5:33 PM 91.4 °F 91.4 °F 60.8 °F 36% 29.78 in 7.0 mi SSW 10.4 mph - N/A   Scattered Clouds
5:37 PM 91.4 °F 91.4 °F 60.8 °F 36% 29.78 in 10.0 mi South 9.2 mph - N/A   Scattered Clouds
5:54 PM 91.4 °F 91.4 °F 60.8 °F 36% 29.78 in 10.0 mi SSW 8.1 mph - N/A   Clear
5:57 PM 91.4 °F 91.4 °F 60.8 °F 36% 29.78 in 10.0 mi SSW 11.5 mph 16.1 mph N/A   Clear
6:13 PM 89.6 °F 89.5 °F 60.8 °F 38% 29.78 in 10.0 mi SSW 6.9 mph - N/A   Clear
6:18 PM 89.6 °F 89.5 °F 60.8 °F 38% 29.78 in 10.0 mi South 5.8 mph - N/A   Clear
6:33 PM 87.8 °F 88.5 °F 62.6 °F 43% 29.78 in 4.0 mi South 3.5 mph - N/A   Haze
6:38 PM 87.8 °F 88.5 °F 62.6 °F 43% 29.78 in 5.0 mi South 3.5 mph - N/A   Haze
6:53 PM 87.8 °F 89.4 °F 64.4 °F 46% 29.77 in 5.0 mi SSE 3.5 mph - N/A   Haze
6:57 PM 87.8 °F 89.4 °F 64.4 °F 46% 29.77 in 5.0 mi SSE 3.5 mph - N/A   Haze
7:13 PM 87.8 °F 89.4 °F 64.4 °F 46% 29.77 in 10.0 mi SE 4.6 mph - N/A   Clear
7:17 PM 87.8 °F 89.4 °F 64.4 °F 46% 29.77 in 10.0 mi SE 4.6 mph - N/A   Clear
7:33 PM 84.2 °F 86.6 °F 66.2 °F 55% 29.78 in 10.0 mi WNW 5.8 mph - N/A   Clear
7:38 PM 84.2 °F 85.6 °F 64.4 °F 51% 29.78 in 10.0 mi NW 4.6 mph - N/A   Clear
7:53 PM 82.4 °F 83.9 °F 64.4 °F 54% 29.79 in 10.0 mi North 5.8 mph - N/A   Clear
7:57 PM 82.4 °F 83.9 °F 64.4 °F 54% 29.79 in 10.0 mi North 5.8 mph - N/A   Clear
8:13 PM 80.6 °F 81.8 °F 62.6 °F 54% 29.79 in 10.0 mi North 4.6 mph - N/A   Clear
8:17 PM 80.6 °F 81.8 °F 62.6 °F 54% 29.80 in 10.0 mi North 4.6 mph - N/A   Clear
8:34 PM 78.8 °F - 64.4 °F 61% 29.81 in 10.0 mi North 3.5 mph - N/A   Clear
8:37 PM 78.8 °F - 64.4 °F 61% 29.81 in 10.0 mi North 3.5 mph - N/A   Clear
8:53 PM 75.2 °F - 64.4 °F 69% 29.82 in 10.0 mi Calm Calm - N/A   Clear
8:57 PM 75.2 °F - 64.4 °F 69% 29.82 in 10.0 mi Calm Calm - N/A   Clear
9:13 PM 75.2 °F - 64.4 °F 69% 29.83 in 10.0 mi Calm Calm - N/A   Clear
9:17 PM 75.2 °F - 64.4 °F 69% 29.83 in 10.0 mi Calm Calm - N/A   Clear
9:33 PM 73.4 °F - 64.4 °F 73% 29.84 in 10.0 mi Calm Calm - N/A   Clear
9:37 PM 73.4 °F - 64.4 °F 73% 29.84 in 10.0 mi Calm Calm - N/A   Clear
9:53 PM 71.6 °F - 64.4 °F 78% 29.85 in 10.0 mi West 5.8 mph - N/A   Scattered Clouds
9:57 PM 71.6 °F - 64.4 °F 78% 29.85 in 10.0 mi West 6.9 mph - N/A   Scattered Clouds
10:14 PM 71.6 °F - 64.4 °F 78% 29.85 in 10.0 mi NW 4.6 mph - N/A   Scattered Clouds
10:17 PM 71.6 °F - 64.4 °F 78% 29.85 in 10.0 mi NW 3.5 mph - N/A   Scattered Clouds
10:33 PM 73.4 °F - 62.6 °F 69% 29.85 in 10.0 mi NNW 6.9 mph - N/A   Scattered Clouds
10:37 PM 71.6 °F - 62.6 °F 73% 29.85 in 10.0 mi NW 6.9 mph - N/A   Clear
10:53 PM 71.6 °F - 62.6 °F 73% 29.85 in 10.0 mi NW 6.9 mph - N/A   Clear
11:37 PM 68.0 °F - 60.8 °F 78% 29.86 in 10.0 mi NNW 4.6 mph - N/A   Scattered Clouds
11:53 PM 66.2 °F - 60.8 °F 83% 29.86 in 10.0 mi NW 5.8 mph - N/A   Clear
11:58 PM 66.2 °F - 60.8 °F 83% 29.87 in 10.0 mi NW 6.9 mph - N/A   Clear